This demonstration page uses our WeatherBlox Daily Observations layout. Learn more.

Left ArrowRight Arrow

Hourly Observations for January 5, 2022

Temp ( °F °C ) Dew Point ( °F °C ) Humidity (%) Winds ( mph kmh ) Pressure ( in mb ) Visibility ( mi km ) Precip ( " mm )
12:53 am 00:53 Clear -19 -28.3 -25 -31.7 73 73 W 5 7 30.60 1036 10 16 0.00 0.00
1:53 am 01:53 Clear -20 -28.9 -26 -32.2 73 73 WSW 8 13 30.60 1036 10 16 0.00 0.00
2:53 am 02:53 Mostly Clear -21 -29.4 -26 -32.2 77 77 SW 8 13 30.59 1036 10 16 0.00 0.00
3:53 am 03:53 Clear -20 -28.9 -26 -32.2 73 73 W 8 13 30.60 1036 10 16 0.00 0.00
4:53 am 04:53 Cloudy -15 -26.1 -22 -30 70 70 WSW 6 9 30.60 1036 10 16 0.00 0.00
5:53 am 05:53 Cloudy -14 -25.6 -21 -29.4 71 71 W 3 6 30.60 1036 10 16 0.00 0.00
6:53 am 06:53 Cloudy -14 -25.6 -22 -30 67 67 WNW 7 11 30.60 1036 10 16 0.00 0.00
7:53 am 07:53 Cloudy -14 -25.6 -21 -29.4 71 71 W 7 11 30.62 1037 10 16 0.00 0.00
8:53 am 08:53 Cloudy -12 -24.4 -20 -28.9 66 66 W 9 15 30.63 1037 10 16 0.00 0.00
9:53 am 09:53 Cloudy -11 -23.9 -19 -28.3 67 67 WNW 9 15 30.66 1038 10 16 0.00 0.00
10:53 am 10:53 Mostly Cloudy -12 -24.4 -19 -28.3 70 70 WNW 8 13 30.68 1039 10 16 0.00 0.00
11:53 am 11:53 Cloudy -10 -23.3 -19 -28.3 64 64 NW 10 17 30.68 1039 10 16 0.00 0.00
12:53 pm 12:53 Sunny -9 -22.8 -19 -28.3 61 61 WNW 9 15 30.68 1039 10 16 0.00 0.00
1:53 pm 13:53 Cloudy -9 -22.8 -18 -27.8 64 64 W 8 13 30.67 1039 10 16 0.00 0.00
2:53 pm 14:53 Cloudy -9 -22.8 -18 -27.8 64 64 WNW 10 17 30.68 1039 10 16 0.00 0.00
3:53 pm 15:53 Cloudy -9 -22.8 -18 -27.8 64 64 WNW 10 17 30.69 1039 10 16 0.00 0.00
4:53 pm 16:53 Cloudy -10 -23.3 -18 -27.8 67 67 WNW 8 13 30.69 1039 10 16 0.00 0.00
5:53 pm 17:53 Cloudy -11 -23.9 -18 -27.8 70 70 WNW 7 11 30.68 1039 10 16 0.00 0.00
6:53 pm 18:53 Cloudy -12 -24.4 -19 -28.3 70 70 WNW 5 7 30.69 1039 10 16 0.00 0.00
7:53 pm 19:53 Mostly Clear -16 -26.7 -21 -29.4 78 78 VRB 3 6 30.70 1040 10 16 0.00 0.00
8:53 pm 20:53 Clear -18 -27.8 -23 -30.6 77 77 SSW 7 11 30.70 1040 10 16 0.00 0.00
9:53 pm 21:53 Clear -21 -29.4 -26 -32.2 77 77 SW 3 6 30.69 1039 10 16 0.00 0.00
10:53 pm 22:53 Clear -20 -28.9 -26 -32.2 73 73 Calm 30.66 1038 10 16 0.00 0.00
11:53 pm 23:53 Clear -21 -29.4 -26 -32.2 77 77 Calm 30.63 1037 10 16 0.00 0.00

Powered by AerisWeather